Pittsburg, KS

10:15 AM CDT on August 29, 2016 (GMT -0500)
Atkinson Municipal

Weather History for KPTS - December, 2013

Change the Weather History Date:

Sunday, December 29, 2013

  Actual Average (KJLN) Record (KJLN)
Temperature  
Mean Temperature 30 °F 35 °F  
Max Temperature 43 °F 45 °F 69 °F (1984)
Min Temperature 16 °F 25 °F -9 °F (1983)
Degree Days  
Heating Degree Days 35 30  
Month to date heating degree days 801  
Since 1 July heating degree days 1558  
Cooling Degree Days 0 0  
Month to date cooling degree days 0  
Year to date cooling degree days 1698  
Moisture  
Dew Point 17 °F    
Average Humidity 68    
Maximum Humidity 81    
Minimum Humidity 49    
Precipitation  
Precipitation 0.00 in 0.07 in 1.04 in (1990)
Month to date precipitation 2.67  
Year to date precipitation 46.40  
Sea Level Pressure  
Sea Level Pressure 30.18 in    
Wind  
Wind Speed 9 mph (North)    
Max Wind Speed 18 mph    
Max Gust Speed 26 mph    
Visibility 10 miles    
Events      
T = Trace of Precipitation, MM = Missing Value Source: NWS Daily Summary

Daily Weather History Graph

Daily Weather History Graph

Search for Another Location

Airport or City:

Trip Planner

Search our weather history database for the weather conditions in past years. The results will help you decide how hot, cold, wet, or windy it might be!

Date:

Astronomy

Dec. 29, 2013 Rise Set
Actual Time 7:32 AM CST 5:09 PM CST
Civil Twilight 7:03 AM CST 5:38 PM CST
Nautical Twilight 6:30 AM CST 6:11 PM CST
Astronomical Twilight 5:59 AM CST 6:43 PM CST
Moon 4:19 AM CST 2:46 PM CST
Length of Visible Light 10h 35m
Length of Day
9h 36m
Waning Crescent, 11% of the Moon is Illuminated
Dec 29
Waning Crescent
Jan 1
New
Jan 7
First Quarter
Jan 15
Full
Jan 23
Last Quarter

Hourly Weather History & Observations

Time (CST) Temp. Windchill Dew Point Humidity Pressure Visibility Wind Dir Wind Speed Gust Speed Precip Events Conditions
12:15 AM 40.3 °F 38.2 °F 32.5 °F 74% 29.93 in 10.0 mi WSW 3.5 mph - N/A   Scattered Clouds
12:35 AM 41.5 °F 38.6 °F 34.0 °F 75% 29.93 in 10.0 mi SW 4.6 mph - N/A   Mostly Cloudy
12:55 AM 43.0 °F 39.5 °F 34.9 °F 73% 29.93 in 10.0 mi SW 5.8 mph - N/A   Overcast
1:15 AM 43.0 °F 38.8 °F 34.7 °F 73% 29.93 in 10.0 mi WSW 6.9 mph - N/A   Overcast
1:35 AM 43.0 °F 39.5 °F 35.4 °F 75% 29.94 in 10.0 mi SW 5.8 mph - N/A   Overcast
1:55 AM 42.8 °F 39.3 °F 35.2 °F 75% 29.94 in 10.0 mi SW 5.8 mph - N/A   Mostly Cloudy
2:15 AM 42.3 °F 37.9 °F 35.6 °F 77% 29.93 in 10.0 mi SW 6.9 mph - N/A   Mostly Cloudy
2:35 AM 43.0 °F 38.8 °F 36.0 °F 76% 29.94 in 10.0 mi WSW 6.9 mph - N/A   Overcast
2:55 AM 43.2 °F 39.0 °F 35.6 °F 75% 29.96 in 10.0 mi NW 6.9 mph - N/A   Overcast
3:15 AM 42.8 °F 37.0 °F 35.2 °F 75% 29.97 in 10.0 mi North 10.4 mph 17.3 mph N/A   Overcast
3:35 AM 40.8 °F 33.7 °F 33.4 °F 75% 29.98 in 10.0 mi North 12.7 mph 20.7 mph N/A   Overcast
3:55 AM 38.5 °F 30.3 °F 31.6 °F 76% 29.99 in 10.0 mi North 13.8 mph 19.6 mph N/A   Overcast
4:15 AM 37.8 °F 29.8 °F 31.1 °F 77% 30.00 in 10.0 mi North 12.7 mph 23.0 mph N/A   Overcast
4:35 AM 36.5 °F 28.7 °F 30.4 °F 78% 30.00 in 10.0 mi NNW 11.5 mph 17.3 mph N/A   Overcast
4:55 AM 35.6 °F 28.0 °F 29.8 °F 80% 30.01 in 10.0 mi North 10.4 mph 21.9 mph N/A   Overcast
5:15 AM 34.5 °F 25.3 °F 29.1 °F 81% 30.03 in 10.0 mi North 13.8 mph 24.2 mph N/A   Mostly Cloudy
5:35 AM 32.5 °F 24.2 °F 27.3 °F 81% 30.05 in 10.0 mi North 10.4 mph 18.4 mph N/A   Mostly Cloudy
5:55 AM 31.8 °F 21.0 °F 26.6 °F 81% 30.06 in 10.0 mi North 16.1 mph 20.7 mph N/A   Mostly Cloudy
6:15 AM 30.7 °F 19.2 °F 25.3 °F 80% 30.08 in 10.0 mi North 17.3 mph 24.2 mph N/A   Mostly Cloudy
6:35 AM 30.7 °F 20.0 °F 25.2 °F 80% 30.10 in 10.0 mi North 15.0 mph 24.2 mph N/A   Overcast
6:55 AM 28.8 °F 16.2 °F 23.0 °F 79% 30.11 in 10.0 mi North 18.4 mph 26.5 mph N/A   Overcast
7:15 AM 28.2 °F 17.7 °F 22.3 °F 78% 30.12 in 10.0 mi North 12.7 mph 21.9 mph N/A   Overcast
7:35 AM 27.0 °F 15.2 °F 21.4 °F 79% 30.14 in 10.0 mi North 15.0 mph 25.3 mph N/A   Overcast
7:55 AM 25.7 °F 14.0 °F 19.9 °F 79% 30.15 in 10.0 mi North 13.8 mph 21.9 mph N/A   Overcast
8:15 AM 24.8 °F 12.4 °F 19.0 °F 79% 30.17 in 10.0 mi North 15.0 mph 21.9 mph N/A   Overcast
8:35 AM 23.9 °F 10.8 °F 18.1 °F 79% 30.18 in 10.0 mi North 16.1 mph 21.9 mph N/A   Overcast
8:55 AM 23.9 °F 11.7 °F 17.8 °F 77% 30.19 in 10.0 mi North 13.8 mph 20.7 mph N/A   Overcast
9:15 AM 23.2 °F 10.3 °F 17.1 °F 77% 30.20 in 10.0 mi NNW 15.0 mph 20.7 mph N/A   Overcast
9:35 AM 23.0 °F 10.1 °F 16.9 °F 77% 30.21 in 10.0 mi NNW 15.0 mph 20.7 mph N/A   Overcast
9:55 AM 22.5 °F 12.4 °F 16.0 °F 76% 30.22 in 10.0 mi North 9.2 mph 23.0 mph N/A   Overcast
10:15 AM 22.1 °F 10.0 °F 15.3 °F 75% 30.23 in 10.0 mi North 12.7 mph 20.7 mph N/A   Overcast
10:35 AM 21.9 °F 8.7 °F 15.1 °F 75% 30.25 in 10.0 mi North 15.0 mph 20.7 mph N/A   Overcast
10:55 AM 21.9 °F 9.8 °F 14.7 °F 74% 30.24 in 10.0 mi North 12.7 mph 18.4 mph N/A   Overcast
11:15 AM 21.9 °F 11.0 °F 13.8 °F 71% 30.25 in 10.0 mi North 10.4 mph 18.4 mph N/A   Overcast
11:35 AM 21.9 °F 9.2 °F 13.6 °F 70% 30.25 in 10.0 mi North 13.8 mph 19.6 mph N/A   Overcast
11:55 AM 21.9 °F 9.2 °F 13.5 °F 70% 30.24 in 10.0 mi North 13.8 mph - N/A   Overcast
12:15 PM 22.8 °F 11.5 °F 14.0 °F 69% 30.23 in 10.0 mi North 11.5 mph 18.4 mph N/A   Overcast
12:35 PM 23.0 °F 11.7 °F 14.0 °F 68% 30.23 in 10.0 mi North 11.5 mph 17.3 mph N/A   Overcast
12:55 PM 23.0 °F 12.4 °F 14.5 °F 70% 30.22 in 10.0 mi North 10.4 mph - N/A   Overcast
1:15 PM 23.2 °F 11.4 °F 14.2 °F 68% 30.23 in 10.0 mi North 12.7 mph 19.6 mph N/A   Mostly Cloudy
1:35 PM 23.5 °F 13.0 °F 14.4 °F 68% 30.23 in 10.0 mi North 10.4 mph 17.3 mph N/A   Mostly Cloudy
1:55 PM 23.9 °F 15.8 °F 14.5 °F 67% 30.23 in 10.0 mi North 6.9 mph 17.3 mph N/A   Overcast
2:15 PM 24.1 °F 13.7 °F 14.5 °F 67% 30.24 in 10.0 mi North 10.4 mph 16.1 mph N/A   Overcast
2:35 PM 23.9 °F 14.2 °F 14.2 °F 66% 30.24 in 10.0 mi North 9.2 mph 17.3 mph N/A   Overcast
2:55 PM 23.5 °F 13.7 °F 13.5 °F 65% 30.25 in 10.0 mi North 9.2 mph 16.1 mph N/A   Mostly Cloudy
3:15 PM 23.4 °F 12.8 °F 13.3 °F 65% 30.25 in 10.0 mi North 10.4 mph - N/A   Mostly Cloudy
3:35 PM 23.2 °F 13.3 °F 13.1 °F 65% 30.25 in 10.0 mi North 9.2 mph - N/A   Mostly Cloudy
3:55 PM 23.5 °F 14.5 °F 13.1 °F 64% 30.26 in 10.0 mi North 8.1 mph - N/A   Mostly Cloudy
4:15 PM 23.7 °F 13.3 °F 13.1 °F 64% 30.27 in 10.0 mi North 10.4 mph - N/A   Mostly Cloudy
4:35 PM 23.7 °F 14.0 °F 13.1 °F 64% 30.27 in 10.0 mi North 9.2 mph - N/A   Overcast
4:55 PM 23.7 °F 17.8 °F 13.5 °F 65% 30.27 in 10.0 mi North 4.6 mph - N/A   Mostly Cloudy
5:15 PM 23.4 °F 15.2 °F 13.3 °F 65% 30.27 in 10.0 mi North 6.9 mph - N/A   Clear
5:35 PM 23.7 °F 14.7 °F 13.1 °F 64% 30.28 in 10.0 mi North 8.1 mph - N/A   Clear
5:55 PM 23.9 °F 15.0 °F 11.5 °F 59% 30.29 in 10.0 mi North 8.1 mph - N/A   Clear
6:15 PM 23.9 °F 15.8 °F 10.8 °F 57% 30.30 in 10.0 mi North 6.9 mph - N/A   Clear
6:35 PM 23.9 °F 15.0 °F 10.8 °F 57% 30.29 in 10.0 mi North 8.1 mph - N/A   Clear
6:55 PM 23.5 °F 15.4 °F 9.9 °F 56% 30.30 in 10.0 mi North 6.9 mph - N/A   Clear
7:15 PM 23.0 °F 13.1 °F 8.2 °F 53% 30.30 in 10.0 mi North 9.2 mph - N/A   Clear
7:35 PM 22.1 °F 11.3 °F 6.4 °F 51% 30.31 in 10.0 mi NNE 10.4 mph - N/A   Clear
7:55 PM 21.4 °F 11.9 °F 4.6 °F 49% 30.31 in 10.0 mi North 8.1 mph - N/A   Clear
8:15 PM 20.8 °F 10.4 °F 5.2 °F 51% 30.31 in 10.0 mi North 9.2 mph - N/A   Clear
8:35 PM 20.7 °F 11.0 °F 4.6 °F 50% 30.31 in 10.0 mi North 8.1 mph - N/A   Clear
8:55 PM 20.7 °F 13.0 °F 4.3 °F 49% 30.30 in 10.0 mi NNE 5.8 mph - N/A   Clear
9:15 PM 19.8 °F 9.9 °F 3.4 °F 49% 30.30 in 10.0 mi North 8.1 mph - N/A   Clear
9:35 PM 18.7 °F 9.5 °F 2.3 °F 49% 30.31 in 10.0 mi North 6.9 mph - N/A   Clear
9:55 PM 18.1 °F 8.9 °F 2.7 °F 51% 30.30 in 10.0 mi NNE 6.9 mph - N/A   Clear
10:15 PM 18.1 °F 7.9 °F 2.5 °F 51% 30.30 in 10.0 mi North 8.1 mph - N/A   Clear
10:35 PM 18.1 °F 8.9 °F 3.6 °F 53% 30.29 in 10.0 mi NNE 6.9 mph - N/A   Clear
10:55 PM 18.1 °F 10.0 °F 5.2 °F 57% 30.29 in 10.0 mi NNE 5.8 mph - N/A   Clear
11:15 PM 17.6 °F 8.2 °F 4.5 °F 56% 30.29 in 10.0 mi NNE 6.9 mph - N/A   Clear
11:35 PM 17.1 °F 6.6 °F 3.6 °F 56% 30.29 in 10.0 mi NNE 8.1 mph - N/A   Clear
11:55 PM 16.7 °F 6.2 °F 3.2 °F 55% 30.28 in 10.0 mi NNE 8.1 mph - N/A   Clear